Regional Weather Roundup
Issued by NWS

Home | Current Version | Previous Version | Text Only | Print | Product List | Glossary On
Versions: 1 2 3 4 5 6 7 8 9 10 11 12 13 14 15 16 17 18 19 20 21 22 23 24 25 26 27 28 29 30 31 32 33 34 35 36 37 38 39 40 41 42 43 44 45 46 47 48 49 50
000
ASUS43 KLSX 241310
RWRMO

WEATHER SUMMARY FOR MISSOURI
NATIONAL WEATHER SERVICE SPRINGFIELD MO
800 AM CDT SUN JUL 24 2016

NOTE: "FAIR" INDICATES FEW OR NO CLOUDS BELOW 12,000 FEET WITH NO
       SIGNIFICANT WEATHER AND/OR OBSTRUCTIONS TO VISIBILITY.
       CURRENT SKY AND/OR WEATHER CONDITIONS ARE NOT AVAILABLE FOR
       CHILLICOTHE AND FARMINGTON.

MOZ001>031-035>038-043-044-053-054-241400-
...NORTHERN AND WESTERN MISSOURI...

CITY           SKY/WX    TMP DP  RH WIND       PRES   REMARKS
KANSAS CTY INT CLOUDY    80  72  76 SW10      29.91R
KANSAS C DTWN  CLOUDY    85  70  60 SW9       29.89R
LEE`S SUMMIT   CLOUDY    83  72  69 SW15      29.92S
ST JOSEPH      MOSUNNY   80  73  79 SW5       29.90R
CHILLICOTHE      N/A     84  76  76 VRB5      29.92R HX  93
KIRKSVILLE     MOSUNNY   83  75  77 SW10      29.92R HX  90

$$
MOZ066>068-077>081-088>096-101>105-241400-
...SOUTHWEST MISSOURI...

CITY           SKY/WX    TMP DP  RH WIND       PRES   REMARKS
SPRINGFIELD    SUNNY     81  72  74 S6        29.98R
JOPLIN         CLOUDY    81  71  71 SW10      29.97R
BRANSON        MOSUNNY   79  72  78 CALM      30.01R

$$
MOZ032>034-039>042-045>050-055>058-069>072-241400-
...CENTRAL MISSOURI...

CITY           SKY/WX    TMP DP  RH WIND       PRES   REMARKS
COLUMBIA       SUNNY     82  75  79 SW8       29.95R
JEFFERSON CITY SUNNY     81  73  76 VRB3      29.94R
ROLLA          SUNNY     80  72  76 SW8       29.96R
SEDALIA        CLOUDY    82  75  79 SW8       29.95R
WHITEMAN AFB   PTSUNNY   83  76  81 SW12      29.92R HX  91
OSAGE BEACH    SUNNY     80  74  81 SW5       29.97R

$$
MOZ051-052-059>065-241400-
...EAST CENTRAL MISSOURI...

CITY           SKY/WX    TMP DP  RH WIND       PRES   REMARKS
ST LOUIS INTL  MOSUNNY   85  75  72 S6        29.95S HX  93
SPIRIT OF STL  SUNNY     83  77  82 CALM      29.93R HX  92
ST CHARLES     SUNNY     81  78  91 CALM      29.93R

$$
MOZ072>076-082>087-097>100-106>115-241400-
...SOUTH CENTRAL AND SOUTHEAST MISSOURI...

CITY           SKY/WX    TMP DP  RH WIND       PRES   REMARKS
CAPE GIRARDEAU SUNNY     79  76  90 S7        29.97R
FARMINGTON     SUNNY     78  75  90 S6        30.00R
POPLAR BLUFF   MOSUNNY   80  75  84 S5        29.97R
WEST PLAINS    PTSUNNY   77  71  82 VRB3      30.02R

$$




USA.gov is the U.S. government's official web portal to all federal, state and local government web resources and services.